Simultaneous Nadir Overpasses (SNOs) Predictions

Prediction of SNOs between GOES-17 and AQUA Satellite Orbit:

Table of predicted SNOs for the next 14.0 days since TLE Epoch: 5/14/2022
Index Date Time (GOES-17) GOES-17 Lat,Lon AQUA Lat,Lon Distance(km) Time Diff (sec)
1 05/14/2022 11:03:18 -0.01,-137.20 0.76,-140.88 417.95 80
2 05/16/2022 10:50:51 -0.01,-137.20 0.10,-137.85 73.52 80
3 05/18/2022 10:35:42 -0.01,-137.19 -0.51,-134.81 270.09 80
4 05/18/2022 22:59:41 0.01,-137.18 -0.57,-139.99 318.99 80
5 05/20/2022 22:44:32 0.01,-137.16 0.06,-136.95 23.99 80
6 05/22/2022 22:34:43 0.01,-137.13 0.72,-133.91 366.89 80
7 05/23/2022 10:55:54 -0.00,-137.14 0.38,-139.05 216.91 80
8 05/25/2022 10:40:44 -0.00,-137.11 -0.23,-136.00 126.02 80
9 05/25/2022 23:02:03 0.00,-137.10 -0.88,-141.17 463.20 80
10 05/27/2022 10:28:14 -0.00,-137.09 -0.86,-132.96 468.64 80
11 05/27/2022 22:49:33 0.00,-137.07 -0.25,-138.13 120.69 80
